Flag Weather past 2 weeks in Halden, Norway

Now
33 °F

Chilly.


Feels Like: 29 °F
Forecast: 32 / 37 °F
Wind: 5 mph from Northeast

Location: Stromtangen Fyr

Current Time: Nov 27, 2014 at 5:28:19 AM

Latest Report: Nov 27, 2014 at 4:00 AM


Visibility: N/A

Pressure: 30.22 "Hg

Humidity: 91%

Dew point: 31 °F

Location of HaldenLocation

Historic Weather in Halden — Graph

°F

Halden temperature yesterday

Maximum temperature yesterday: 36 °F (at 12:00 AM)
Minimum temperature yesterday: 31 °F (at 7:00 AM)
Average temperature yesterday: 33 °F

Past Weeks' High & Low Weather Summary

 TemperatureHumidityPressure
High48 °F (Nov 13, 1:00 AM)92% (Nov 14, 6:00 AM)30.50 "Hg (Nov 14, 6:00 AM)
Low31 °F (Nov 26, 7:00 AM)71% (Nov 17, 6:00 AM)29.68 "Hg (Nov 24, 10:00 AM)
Average41 °F86%30.20 "Hg
* Reported Nov 12 4:00 AM — Nov 27 4:00 AM, Halden, Weather by CustomWeather, © 2014

Note: Actual official high and low records may vary slightly from our data, if they occured in-between our weather recording intervals... More about our weather records

Advertising

Halden weather history for previous 24 hours

 ConditionsComfort  
Time TempWeatherWind HumidityBarometerVisibility
4:00 AM
Nov 27
33 °FChilly.5 mph91%30.22 "HgN/A
3:00 AM33 °FChilly.5 mph91%30.22 "HgN/A
2:00 AM33 °FChilly.5 mph91%30.23 "HgN/A
1:00 AM33 °FChilly.5 mph91%30.24 "HgN/A
12:00 AM33 °FChilly.3 mph90%30.25 "HgN/A
11:00 PM
Nov 26
33 °FChilly.5 mph89%30.26 "HgN/A
10:00 PM33 °FChilly.5 mph89%30.26 "HgN/A
9:00 PM33 °FChilly.3 mph88%30.27 "HgN/A
8:00 PM33 °FChilly.3 mph89%30.27 "HgN/A
7:00 PM31 °FChilly.2 mph89%30.27 "HgN/A
6:00 PM32 °FChilly.3 mph88%30.27 "HgN/A
5:00 PM32 °FChilly.2 mph86%30.27 "HgN/A
4:00 PM34 °FChilly.2 mph84%30.29 "HgN/A
3:00 PM36 °FChilly.5 mph82%30.28 "HgN/A
2:00 PM36 °FChilly.5 mph83%30.29 "HgN/A
1:00 PM36 °FChilly.5 mph83%30.30 "HgN/A
12:00 PM35 °FChilly.3 mph85%30.31 "HgN/A
11:00 AM34 °FChilly.3 mph88%30.32 "HgN/A
10:00 AM33 °FChilly.3 mph91%30.31 "HgN/A
9:00 AM32 °FChilly.1 mph92%30.31 "HgN/A
8:00 AM31 °FChilly.1 mph92%30.30 "HgN/A
7:00 AM31 °FChilly.3 mph92%30.29 "HgN/A
6:00 AM31 °FChilly.2 mph92%30.29 "HgN/A
5:00 AM31 °FChilly.2 mph92%30.29 "HgN/A
Weather by CustomWeather, © 2014

See weather overviewHow to use our weather pages